| time (UTC) | temp F | wind direction | speed MPH | gust MPH | rain 1hr in | rain 24hr in | rain mn in | humidity % | barometer mb |
| 20260903135420 | 51 | 0.0 | 0.0 | 0.03 | 0.26 | 0.00 | 90 | 1008.0 | |
| 20260903134347 | 51 | 0.0 | 0.0 | 0.01 | 0.25 | 0.00 | 89 | 1008.0 | |
| 20260903133401 | 51 | 0.0 | 0.0 | 0.00 | 0.24 | 0.00 | 89 | 1008.0 | |
| 20260903132335 | 51 | 0.0 | 0.0 | 0.00 | 0.24 | 0.00 | 90 | 1007.8 | |
| 20260903131248 | 51 | 0.0 | 0.0 | 0.00 | 0.24 | 0.00 | 88 | 1007.7 | |
| 20260903130243 | 51 | 0.0 | 0.0 | 0.00 | 0.24 | 0.00 | 86 | 1007.7 | |
| 20260903125132 | 51 | 0.0 | 0.0 | 0.00 | 0.23 | 0.00 | 84 | 1007.6 | |
| 20260903124156 | 51 | 0.0 | 0.0 | 0.00 | 0.23 | 0.00 | 85 | 1007.5 | |
| 20260903123059 | 52 | 0.0 | 0.0 | 0.00 | 0.23 | 0.00 | 84 | 1007.3 | |
| 20260903121925 | 52 | 0.0 | 0.0 | 0.00 | 0.23 | 0.00 | 84 | 1007.1 | |
| 20260903120838 | 52 | 0.0 | 0.0 | 0.01 | 0.23 | 0.00 | 84 | 1007.2 | |
| 20260903115722 | 52 | 0.0 | 0.0 | 0.01 | 0.23 | 0.00 | 84 | 1007.0 | |
| 20260903114556 | 52 | 0.0 | 0.0 | 0.01 | 0.23 | 0.00 | 84 | 1007.1 | |
| 20260903113510 | 52 | 0.0 | 0.0 | 0.01 | 0.23 | 0.00 | 82 | 1007.2 | |
| 20260903112350 | 52 | 0.0 | 0.0 | 0.01 | 0.23 | 0.00 | 82 | 1007.1 | |
| 20260903111428 | 52 | 0.0 | 0.0 | 0.01 | 0.23 | 0.00 | 82 | 1007.1 | |
| 20260903110253 | 52 | 0.0 | 0.0 | 0.00 | 0.21 | 0.00 | 79 | 1007.1 | |
| 20260903105207 | 52 | 0.0 | 0.0 | 0.00 | 0.21 | 0.00 | 78 | 1006.9 | |
| 20260903104234 | 52 | 0.0 | 0.0 | 0.00 | 0.21 | 0.00 | 78 | 1007.0 | |
| 20260903103256 | 52 | 0.0 | 0.0 | 0.00 | 0.21 | 0.00 | 79 | 1006.9 | |
| 20260903102155 | 52 | 0.0 | 0.0 | 0.00 | 0.21 | 0.00 | 78 | 1006.9 | |
| 20260903101212 | 52 | 0.0 | 0.0 | 0.00 | 0.21 | 0.00 | 80 | 1007.1 | |
| 20260903100238 | 52 | 0.0 | 0.0 | 0.00 | 0.21 | 0.00 | 79 | 1006.9 | |
| 20260903095145 | 52 | 0.0 | 0.0 | 0.00 | 0.21 | 0.00 | 79 | 1006.9 | |
| 20260903094222 | 52 | 0.0 | 0.0 | 0.00 | 0.21 | 0.00 | 79 | 1006.8 | |
| 20260903093154 | 52 | 0.0 | 0.0 | 0.00 | 0.21 | 0.00 | 80 | 1006.8 | |
| 20260903092148 | 51 | 0.0 | 0.0 | 0.00 | 0.22 | 0.00 | 82 | 1006.8 | |
| 20260903091042 | 51 | 0.0 | 0.0 | 0.00 | 0.22 | 0.00 | 84 | 1006.7 | |
| 20260903085946 | 51 | 0.0 | 0.0 | 0.00 | 0.22 | 0.00 | 84 | 1006.8 | |
| 20260903084921 | 51 | 0.0 | 0.0 | 0.00 | 0.24 | 0.00 | 83 | 1006.7 | |
| 20260903083817 | 51 | 0.0 | 0.0 | 0.00 | 0.24 | 0.00 | 83 | 1006.7 | |
| 20260903082741 | 52 | 0.0 | 0.0 | 0.00 | 0.24 | 0.00 | 83 | 1006.8 | |
| 20260903081640 | 52 | 0.0 | 0.0 | 0.00 | 0.24 | 0.00 | 82 | 1006.8 | |
| 20260903080521 | 51 | 0.0 | 0.0 | 0.00 | 0.24 | 0.00 | 82 | 1006.9 | |
| 20260903075549 | 52 | 0.0 | 0.0 | 0.00 | 0.24 | 0.00 | 82 | 1006.7 | |
| 20260903074442 | 52 | 0.0 | 0.0 | 0.00 | 0.24 | 0.00 | 84 | 1006.8 | |
| 20260903073406 | 52 | 0.0 | 0.0 | 0.00 | 0.24 | 0.00 | 84 | 1006.7 | |
| 20260903072251 | 52 | 0.0 | 0.0 | 0.00 | 0.24 | 0.00 | 86 | 1006.7 | |
| 20260903071259 | 52 | 0.0 | 0.0 | 0.00 | 0.24 | 0.00 | 84 | 1006.7 | |
| 20260903070137 | 52 | 0.0 | 0.0 | 0.00 | 0.24 | 0.00 | 84 | 1006.6 | |
| 20260903064956 | 52 | 0.0 | 0.0 | 0.00 | 0.24 | 0.00 | 85 | 1006.8 | |
| 20260903063850 | 52 | 0.0 | 0.0 | 0.00 | 0.24 | 0.00 | 86 | 1006.7 | |
| 20260903062904 | 52 | 0.0 | 0.0 | 0.00 | 0.24 | 0.00 | 85 | 1006.6 | |
| 20260903061805 | 52 | 0.0 | 0.0 | 0.00 | 0.24 | 0.00 | 86 | 1006.6 | |
| 20260903060658 | 52 | 0.0 | 0.0 | 0.00 | 0.24 | 0.00 | 86 | 1006.5 | |
| 20260903055741 | 52 | 0.0 | 0.0 | 0.00 | 0.24 | 0.00 | 86 | 1006.5 | |
| 20260903054802 | 52 | 0.0 | 0.0 | 0.00 | 0.24 | 0.00 | 86 | 1006.6 | |
| 20260903053757 | 52 | 0.0 | 0.0 | 0.00 | 0.24 | 0.00 | 86 | 1006.7 | |
| 20260903052750 | 52 | 0.0 | 0.0 | 0.00 | 0.24 | 0.00 | 87 | 1006.7 | |
| 20260903051725 | 53 | 0.0 | 0.0 | 0.00 | 0.24 | 0.00 | 87 | 1006.5 | |
| 20260903050753 | 53 | 0.0 | 0.0 | 0.00 | 0.24 | 0.00 | 87 | 1006.6 | |
| 20260903045821 | 53 | 0.0 | 0.0 | 0.00 | 0.24 | 0.00 | 87 | 1006.4 | |
| 20260903044813 | 53 | 0.0 | 0.0 | 0.00 | 0.24 | 0.00 | 87 | 1006.5 | |
| 20260903043804 | 53 | 0.0 | 0.0 | 0.00 | 0.24 | 0.00 | 86 | 1006.5 | |
| 20260903042820 | 53 | 0.0 | 0.0 | 0.00 | 0.24 | 0.00 | 87 | 1006.4 | |
| 20260903041657 | 53 | 0.0 | 0.0 | 0.00 | 0.24 | 0.00 | 88 | 1006.3 | |
| 20260903040616 | 53 | 0.0 | 0.0 | 0.00 | 0.24 | 0.00 | 89 | 1006.3 | |
| 20260903035544 | 54 | 0.0 | 0.0 | 0.00 | 0.24 | 0.00 | 89 | 1006.1 | |
| 20260903035152 | 58 | 0.0 | 0.0 | 0.03 | 0.14 | 0.00 | 84 | 1002.8 | |
| 20260903034452 | 54 | 0.0 | 0.0 | 0.00 | 0.24 | 0.00 | 89 | 1005.9 | |
| 20260903033519 | 54 | 0.0 | 0.0 | 0.00 | 0.25 | 0.00 | 89 | 1005.7 | |
| 20260903032452 | 54 | 0.0 | 0.0 | 0.00 | 0.25 | 0.00 | 90 | 1005.8 | |
| 20260903031511 | 55 | 0.0 | 0.0 | 0.00 | 0.25 | 0.00 | 90 | 1005.6 | |
| 20260903030511 | 55 | 0.0 | 0.0 | 0.00 | 0.25 | 0.00 | 89 | 1005.4 | |
| 20260903025445 | 55 | 0.0 | 0.0 | 0.00 | 0.25 | 0.00 | 88 | 1005.2 | |
| 20260903024504 | 56 | 0.0 | 0.0 | 0.00 | 0.25 | 0.00 | 87 | 1005.1 | |
| 20260903023322 | 57 | 0.0 | 0.0 | 0.00 | 0.25 | 0.00 | 86 | 1005.2 | |
| 20260903022223 | 57 | 0.0 | 0.0 | 0.00 | 0.25 | 0.00 | 85 | 1004.8 | |
| 20260903021619 | 58 | 0.0 | 0.0 | 0.00 | 0.25 | 0.00 | 84 | 1004.7 | |
| 20260903021200 | 58 | 0.0 | 0.0 | 0.00 | 0.25 | 0.00 | 83 | 1004.7 | |
| 20260903020220 | 57 | 0.0 | 0.0 | 0.07 | 0.25 | 0.00 | 83 | 1004.5 | |
| 20260903015151 | 56 | 0.0 | 0.0 | 0.10 | 0.25 | 0.00 | 87 | 1004.6 | |
| 20260903014051 | 56 | 0.0 | 0.0 | 0.10 | 0.25 | 0.00 | 88 | 1004.4 | |
| 20260903013031 | 56 | 0.0 | 0.0 | 0.10 | 0.25 | 0.00 | 89 | 1004.3 | |
| 20260903012056 | 56 | 0.0 | 0.0 | 0.10 | 0.25 | 0.00 | 90 | 1004.0 | |
| 20260903011130 | 56 | 0.0 | 0.0 | 0.10 | 0.24 | 0.00 | 91 | 1003.9 | |
| 20260903010104 | 57 | 0.0 | 0.0 | 0.01 | 0.15 | 0.00 | 91 | 1004.0 | |
| 20260903004922 | 58 | 0.0 | 0.0 | 0.00 | 0.14 | 0.00 | 88 | 1003.4 | |
| 20260903003750 | 58 | 0.0 | 0.0 | 0.00 | 0.14 | 0.00 | 82 | 1002.8 | |
| 20260903002807 | 58 | 0.0 | 0.0 | 0.00 | 0.14 | 0.00 | 82 | 1002.9 | |
| 20260903001757 | 58 | 0.0 | 0.0 | 0.01 | 0.14 | 0.00 | 86 | 1002.8 | |
| 20260903000632 | 58 | 0.0 | 0.0 | 0.03 | 0.14 | 0.00 | 84 | 1002.8 | |
| 20260902235528 | 58 | 0.0 | 0.0 | 0.03 | 0.14 | 0.00 | 86 | 1002.9 | |
| 20260902234532 | 58 | 0.0 | 0.0 | 0.04 | 0.14 | 0.00 | 87 | 1003.1 | |
| 20260902233351 | 58 | 0.0 | 0.0 | 0.06 | 0.14 | 0.00 | 86 | 1003.2 | |
| 20260902232256 | 58 | 0.0 | 0.0 | 0.06 | 0.13 | 0.00 | 88 | 1003.7 | |
| 20260902231321 | 59 | 0.0 | 0.0 | 0.04 | 0.10 | 0.00 | 86 | 1003.6 | |
| 20260902230216 | 59 | 0.0 | 0.0 | 0.04 | 0.10 | 0.00 | 86 | 1003.4 | |
| 20260902225245 | 59 | 0.0 | 0.0 | 0.04 | 0.10 | 0.00 | 85 | 1003.1 | |
| 20260902224228 | 59 | 0.0 | 0.0 | 0.05 | 0.09 | 0.00 | 84 | 1003.1 | |
| 20260902223223 | 60 | 0.0 | 0.0 | 0.03 | 0.07 | 0.00 | 83 | 1003.3 | |
| 20260902222142 | 60 | 0.0 | 0.0 | 0.03 | 0.07 | 0.00 | 83 | 1003.2 | |
| 20260902221040 | 60 | 0.0 | 0.0 | 0.03 | 0.06 | 0.00 | 83 | 1003.1 | |
| 20260902220039 | 61 | 0.0 | 0.0 | 0.02 | 0.05 | 0.00 | 81 | 1003.1 | |
| 20260902214943 | 61 | 0.0 | 0.0 | 0.02 | 0.05 | 0.00 | 79 | 1002.8 | |
| 20260902214023 | 62 | 0.0 | 0.0 | 0.00 | 0.03 | 0.00 | 78 | 1002.7 | |
| 20260902212857 | 62 | 0.0 | 0.0 | 0.00 | 0.03 | 0.00 | 75 | 1003.0 | |
| 20260902211828 | 62 | 0.0 | 0.0 | 0.00 | 0.03 | 0.00 | 74 | 1003.0 | |
| 20260902210745 | 63 | 0.0 | 0.0 | 0.00 | 0.03 | 0.00 | 71 | 1002.8 | |
| 20260902205824 | 64 | 0.0 | 0.0 | 0.00 | 0.03 | 0.00 | 70 | 1002.9 | |
| 20260902204721 | 64 | 0.0 | 0.0 | 0.00 | 0.03 | 0.00 | 69 | 1002.9 | |
| 20260902203742 | 65 | 0.0 | 0.0 | 0.00 | 0.03 | 0.00 | 66 | 1002.6 | |
| 20260902202757 | 65 | 0.0 | 0.0 | 0.00 | 0.03 | 0.00 | 64 | 1002.5 | |
| 20260902201745 | 66 | 0.0 | 0.0 | 0.00 | 0.03 | 0.00 | 63 | 1002.8 | |
| 20260902200738 | 66 | 0.0 | 0.0 | 0.00 | 0.03 | 0.00 | 61 | 1002.8 | |
| 20260902195638 | 67 | 0.0 | 0.0 | 0.00 | 0.03 | 0.00 | 59 | 1002.7 | |
| 20260902194647 | 67 | 0.0 | 0.0 | 0.00 | 0.03 | 0.00 | 60 | 1002.8 | |
| 20260902193625 | 67 | 0.0 | 0.0 | 0.00 | 0.03 | 0.00 | 60 | 1002.9 | |
| 20260902192543 | 67 | 0.0 | 0.0 | 0.00 | 0.03 | 0.00 | 59 | 1002.9 | |
| 20260902191429 | 66 | 0.0 | 0.0 | 0.00 | 0.03 | 0.00 | 60 | 1003.0 | |
| 20260902190510 | 66 | 0.0 | 0.0 | 0.00 | 0.03 | 0.00 | 60 | 1003.2 | |
| 20260902185418 | 65 | 0.0 | 0.0 | 0.00 | 0.03 | 0.00 | 63 | 1003.4 | |
| 20260902184242 | 64 | 0.0 | 0.0 | 0.00 | 0.03 | 0.00 | 63 | 1003.5 | |
| 20260902183107 | 64 | 0.0 | 0.0 | 0.00 | 0.03 | 0.00 | 63 | 1003.7 | |
| 20260902181932 | 64 | 0.0 | 0.0 | 0.00 | 0.03 | 0.00 | 63 | 1003.8 | |
| 20260902180757 | 64 | 0.0 | 0.0 | 0.00 | 0.03 | 0.00 | 64 | 1004.0 | |
| 20260902175817 | 64 | 0.0 | 0.0 | 0.00 | 0.03 | 0.00 | 64 | 1004.1 | |
| 20260902174840 | 64 | 0.0 | 0.0 | 0.00 | 0.03 | 0.00 | 63 | 1004.2 | |
| 20260902173917 | 64 | 0.0 | 0.0 | 0.00 | 0.03 | 0.00 | 66 | 1004.3 | |
| 20260902172917 | 63 | 0.0 | 0.0 | 0.00 | 0.03 | 0.00 | 68 | 1004.4 | |
| 20260902171852 | 62 | 0.0 | 0.0 | 0.00 | 0.03 | 0.00 | 69 | 1004.6 | |
| 20260902170816 | 62 | 0.0 | 0.0 | 0.00 | 0.03 | 0.00 | 71 | 1004.9 | |
| 20260902165811 | 61 | 0.0 | 0.0 | 0.00 | 0.03 | 0.00 | 71 | 1004.7 | |
| 20260902164730 | 61 | 0.0 | 0.0 | 0.00 | 0.03 | 0.00 | 71 | 1004.9 | |
| 20260902163656 | 61 | 0.0 | 0.0 | 0.00 | 0.03 | 0.00 | 71 | 1004.9 | |
| 20260902162621 | 60 | 0.0 | 0.0 | 0.00 | 0.03 | 0.00 | 74 | 1005.1 | |
| 20260902161608 | 59 | 0.0 | 0.0 | 0.00 | 0.03 | 0.00 | 74 | 1005.2 | |
| 20260902160648 | 58 | 0.0 | 0.0 | 0.00 | 0.03 | 0.00 | 75 | 1005.2 | |
| 20260902155529 | 58 | 0.0 | 0.0 | 0.00 | 0.03 | 0.00 | 77 | 1005.4 | |
| 20260902154521 | 57 | 0.0 | 0.0 | 0.00 | 0.03 | 0.00 | 82 | 1005.6 | |
| 20260902153456 | 56 | 0.0 | 0.0 | 0.00 | 0.03 | 0.00 | 84 | 1005.8 | |
| 20260902152352 | 56 | 0.0 | 0.0 | 0.00 | 0.03 | 0.00 | 85 | 1005.7 | |
| 20260902151241 | 56 | 0.0 | 0.0 | 0.00 | 0.03 | 0.00 | 85 | 1005.9 | |
| 20260902150115 | 55 | 0.0 | 0.0 | 0.00 | 0.03 | 0.00 | 88 | 1006.2 | |
| 20260902144957 | 55 | 0.0 | 0.0 | 0.00 | 0.03 | 0.00 | 89 | 1006.4 | |
| 20260902144021 | 55 | 0.0 | 0.0 | 0.00 | 0.03 | 0.00 | 88 | 1006.5 | |
| 20260902142948 | 55 | 0.0 | 0.0 | 0.00 | 0.03 | 0.00 | 89 | 1006.7 | |
| 20260902142001 | 54 | 0.0 | 0.0 | 0.00 | 0.03 | 0.00 | 90 | 1006.7 | |
| 20260902140958 | 54 | 0.0 | 0.0 | 0.00 | 0.03 | 0.00 | 90 | 1006.6 | |
| 20260902140012 | 54 | 0.0 | 0.0 | 0.00 | 0.03 | 0.00 | 90 | 1006.7 |